St Catherine Internationa, Egypt

1:23 PM EET on April 26, 2018 (GMT +0200)
St Catherine Internationa

Weather History for HESC - August, 2014

Change the Weather History Date:

Saturday, August 23, 2014

  Actual Average Record
Temperature  
Mean Temperature 76 °F -  
Max Temperature 89 °F - - ()
Min Temperature 64 °F - - ()
Cooling Degree Days 12    
Growing Degree Days 26 (Base 50)    
Moisture  
Dew Point 45 °F    
Average Humidity 34    
Maximum Humidity 57    
Minimum Humidity 15    
Precipitation  
Precipitation 0.00 in - - ()
Sea Level Pressure  
Sea Level Pressure 30.06 in    
Wind  
Wind Speed 6 mph ()    
Max Wind Speed 16 mph    
Max Gust Speed -    
T = Trace of Precipitation, MM = Missing Value Source: Averaged Metar Reports

Daily Weather History Graph

Daily Weather History Graph

Search for Another Location

Airport or City:

Astronomy

Aug. 23, 2014 Rise Set
Actual Time 6:17 AM EEST 7:15 PM EEST
Civil Twilight 5:52 AM EEST 7:39 PM EEST
Nautical Twilight 5:23 AM EEST 8:08 PM EEST
Astronomical Twilight 4:54 AM EEST 8:38 PM EEST
Moon 4:18 AM EEST (8/23) 5:45 PM EEST (8/23)
Length of Visible Light 13h 47m
Length of Day
12h 58m
Waning Crescent, 4% of the Moon is Illuminated
Aug 23
Waning Crescent
Aug 25
New
Sep 2
First Quarter
Sep 9
Full
Sep 16
Last Quarter

Hourly Weather History & Observations

Time (EEST) Temp. Dew Point Humidity Pressure Visibility Wind Dir Wind Speed Gust Speed Precip Events Conditions
12:00 AM 71.6 °F 55.4 °F 57% 30.09 in - SSE 6.9 mph - N/A   Clear
1:00 AM 71.6 °F 55.4 °F 57% 30.12 in - North 9.2 mph - N/A   Clear
3:00 AM 68.0 °F 48.2 °F 49% 30.04 in - Calm Calm - N/A   Clear
4:00 AM 66.2 °F 48.2 °F 52% 30.04 in - Calm Calm - N/A   Clear
5:00 AM 64.4 °F 46.4 °F 52% 30.04 in - Calm Calm - N/A   Clear
6:00 AM 64.4 °F 46.4 °F 52% 30.09 in - Calm Calm - N/A   Clear
7:00 AM 64.4 °F 46.4 °F 52% 30.09 in - WSW 3.5 mph - N/A   Clear
8:00 AM 73.4 °F 46.4 °F 38% 30.09 in - Calm Calm - N/A   Clear
9:00 AM 77.0 °F 50.0 °F 39% 30.09 in - Calm Calm - N/A   Clear
10:00 AM 78.8 °F 42.8 °F 28% 30.09 in - NNE 10.4 mph - N/A   Clear
11:00 AM 82.4 °F 41.0 °F 23% 30.06 in - NNE 12.7 mph - N/A   Clear
12:00 PM 84.2 °F 41.0 °F 22% 30.06 in - NNE 10.4 mph - N/A   Clear
1:00 PM 86.0 °F 39.2 °F 19% 30.04 in - North 10.4 mph - N/A   Clear
2:00 PM 87.8 °F 37.4 °F 17% 30.04 in - NW 8.1 mph - N/A   Clear
3:00 PM 89.6 °F 35.6 °F 15% 30.04 in - North 9.2 mph - N/A   Clear
4:00 PM 89.6 °F 35.6 °F 15% 30.04 in - NE 8.1 mph - N/A   Clear
5:00 PM 89.6 °F 39.2 °F 17% 30.04 in - NNE 11.5 mph - N/A   Clear
6:00 PM 86.0 °F 37.4 °F 18% 30.04 in - North 12.7 mph - N/A   Clear
8:00 PM 82.4 °F 41.0 °F 23% 30.04 in - NNW 16.1 mph - N/A   Clear
9:00 PM 78.8 °F 46.4 °F 32% 30.06 in - North 11.5 mph - N/A   Clear
10:00 PM 77.0 °F 48.2 °F 36% 30.06 in - North 11.5 mph - N/A   Clear
11:00 PM 75.2 °F 51.8 °F 44% 30.06 in - North 8.1 mph - N/A   Clear